Starlink 33866

operational
NORAD ID: 63653 Int'l Des: 2025-083 Owner: SPXS Country: US Constellation: starlink
LEOCIRCULAR

About Starlink 33866

Description loading...

Live Position

Loading 3D Globe...

Upcoming Passes

Altitude History

Altitude vs Time

uPlot chart will show altitude changes over time

Two-Line Element Set

1 63653U 25083V 26034.16056265 .00019466 00000-0 71491-3 0 9998
2 63653 43.0005 200.4162 0001341 276.0383 84.0316 15.27585906 44817
Epoch: Feb 3, 2026 • Age: 18 hours

Current Status

Altitude 482.5 km
Velocity 7.63 km/s
Sub-Earth Point 15.11°N, 101.66°W
Launch Date Apr 25, 2025
Age 0.7 years
Type internet

Technical Details

Classification Payload
Mass 575.00 kg
Dry Mass 530.00 kg
Total Mass 575.00 kg
Length 0.30 m
Diameter 4.10 m
Span 29.00 m
Shape Box + pan
Manufacturer SPXS
Bus Type Starlink V2MO
Phase Status In Orbit
Owner/State SPXS/US

Large Constellations

Loading constellations...